Location: Aragnouet
(42.7874°N, 0.2165°E)
Time: 13:44:36
(UTC+00:00)

STPSAT 2 (USA 217) - Visible Passes

Search period start: 06 August 2020 00:00
Search period end: 16 August 2020 00:00
Orbit: 622 x 646 km, 72.0° (Epoch: 02 August)

Date Brightness Start Highest point End Pass type
(mag) Time Alt. Az. Time Alt. Az. Time Alt. Az.
06 Aug 8.1 03:21:52 10° NNE 03:24:05 13° NE 03:26:19 10° E visible
06 Aug 8.5 20:56:20 10° WNW 20:57:09 10° NW 20:57:58 10° NW visible
07 Aug 7.1 03:42:52 10° N 03:46:40 26° ENE 03:50:24 10° ESE visible
07 Aug 6.6 19:34:59 10° SW 19:39:11 35° WNW 19:43:24 10° N visible
08 Aug 5.5 04:04:35 10° NNW 04:09:01 53° ENE 04:13:23 10° SE visible
08 Aug 7.8 19:58:29 10° W 20:01:39 18° NW 20:04:50 10° N visible
09 Aug 7.8 02:48:42 10° NNE 02:51:16 15° NE 02:53:48 10° E visible
09 Aug 4.6 04:26:42 10° NNW 04:31:11 68° WSW 04:35:36 10° SSE visible
10 Aug 6.8 03:09:52 10° N 03:13:47 28° ENE 03:17:40 10° ESE visible
11 Aug 5.2 03:31:39 10° NNW 03:36:07 60° ENE 03:40:32 10° SE visible
12 Aug 7.6 02:15:35 10° NNE 02:18:25 16° NE 02:21:14 10° E visible
12 Aug 4.6 03:53:49 10° NNW 03:58:15 60° WSW 04:02:39 10° S visible
13 Aug 6.4 02:36:53 10° N 02:40:55 31° ENE 02:44:55 10° ESE visible
13 Aug 5.5 04:16:27 10° NW 04:20:12 26° WSW 04:23:56 10° SSW visible
14 Aug 4.9 02:58:43 10° NNW 03:03:13 68° ENE 03:07:39 10° SSE visible
15 Aug 7.3 01:42:30 10° N 01:45:34 18° NE 01:48:37 10° E visible
15 Aug 4.6 03:20:57 10° NNW 03:25:19 53° WSW 03:29:15 12° S visible
